Weather History for Ann Arbor, MI

Change the Weather History Date:

Sunday, January 26, 2014

  Actual Average Record
Temperature  
Mean Temperature 11 °F -  
Max Temperature 27 °F 27 °F 51 °F (2002)
Min Temperature -5 °F 10 °F -9 °F (2009)
Degree Days  
Heating Degree Days 54    
Moisture  
Dew Point 7 °F    
Average Humidity 79    
Maximum Humidity 93    
Minimum Humidity 71    
Precipitation  
Precipitation 0.02 in - - ()
Sea Level Pressure  
Sea Level Pressure 29.56 in    
Wind  
Wind Speed 7 mph (SSW)    
Max Wind Speed 22 mph    
Max Gust Speed 30 mph    
Visibility 5 miles    
Events Fog , Snow    
Averages and records for this station are not official NWS values.
T = Trace of Precipitation, MM = Missing Value Source: NWS Daily Summary

Daily Weather History Graph

Daily Weather History Graph

Search for Another Location

Airport:

Trip Planner

Search our weather history database for the weather conditions in past years. The results will help you decide how hot, cold, wet, or windy it might be!

Date:

Astronomy

Jan. 26, 2014 Rise Set
Actual Time 7:53 AM EST 5:41 PM EST
Civil Twilight 7:23 AM EST 6:11 PM EST
Nautical Twilight 6:49 AM EST 6:45 PM EST
Astronomical Twilight 6:16 AM EST 7:18 PM EST
Moon 3:30 AM EST (1/26) 1:29 PM EST (1/26)
Length of Visible Light 10h 48m
Length of Day
9h 47m
Waning Crescent, 24% of the Moon is Illuminated
Jan 26
Waning Crescent
Jan 30
New
Feb 6
First Quarter
Feb 14
Full
Feb 22
Last Quarter

Hourly Weather History & Observations

Time (EST) Temp. Windchill Dew Point Humidity Pressure Visibility Wind Dir Wind Speed Gust Speed Precip Events Conditions
12:04 AM 3.2 °F -4.2 °F -0.4 °F 85% 29.76 in 10.0 mi WSW 3.5 mph - N/A   Overcast
12:49 AM 1.4 °F -6.2 °F -2.2 °F 85% 29.75 in 10.0 mi SW 3.5 mph - 0.00 in   Overcast
12:53 AM 1.0 °F -6.7 °F -4.0 °F 79% 29.81 in 10.0 mi SW 3.5 mph - 0.00 in   Mostly Cloudy
1:53 AM -2.0 °F - -6.0 °F 83% 29.79 in 10.0 mi Calm Calm - N/A   Clear
2:53 AM -5.1 °F - -9.0 °F 83% 29.78 in 10.0 mi Calm Calm - N/A   Clear
3:53 AM -0.9 °F -8.9 °F -6.0 °F 79% 29.78 in 10.0 mi West 3.5 mph - N/A   Overcast
4:53 AM 5.0 °F -5.6 °F 1.0 °F 84% 29.74 in 10.0 mi SSW 5.8 mph - N/A   Overcast
5:53 AM 8.1 °F -3.2 °F 3.9 °F 83% 29.73 in 10.0 mi SSW 6.9 mph - N/A   Overcast
6:53 AM 7.0 °F -5.7 °F 1.9 °F 80% 29.73 in 2.5 mi South 8.1 mph - 0.00 in Snow Light Snow
7:08 AM 6.8 °F -4.8 °F 1.4 °F 79% 29.68 in 2.5 mi South 6.9 mph - 0.00 in Snow Light Snow
7:27 AM 6.8 °F -4.8 °F 1.4 °F 79% 29.66 in 1.8 mi SSW 6.9 mph - 0.00 in Snow Light Snow
7:42 AM 6.8 °F -4.8 °F 1.4 °F 79% 29.66 in 1.2 mi South 6.9 mph - 0.00 in Snow Light Snow
7:53 AM 7.0 °F -3.3 °F 1.9 °F 80% 29.70 in 1.5 mi South 5.8 mph - 0.00 in Snow Light Snow
8:00 AM 6.8 °F -4.8 °F 1.4 °F 79% 29.65 in 1.2 mi South 6.9 mph - 0.00 in Snow Light Snow
8:11 AM 6.8 °F -4.8 °F 1.4 °F 79% 29.64 in 0.8 mi South 6.9 mph - 0.00 in Snow Light Snow
8:53 AM 7.0 °F -8.3 °F 1.9 °F 80% 29.68 in 0.8 mi South 11.5 mph - 0.01 in Snow Light Snow
8:56 AM 6.8 °F -5.9 °F 1.4 °F 79% 29.62 in 1.0 mi South 8.1 mph - 0.00 in Snow Light Snow
9:23 AM 6.8 °F -8.6 °F 1.4 °F 79% 29.61 in 0.8 mi South 11.5 mph - 0.00 in Snow Light Snow
9:49 AM 6.8 °F -5.9 °F 3.2 °F 85% 29.59 in 1.0 mi South 8.1 mph - 0.00 in Snow Light Snow
9:53 AM 7.0 °F -7.5 °F 1.9 °F 80% 29.64 in 1.0 mi South 10.4 mph - 0.00 in Snow Light Snow
9:57 AM 6.8 °F -7.8 °F 1.4 °F 79% 29.58 in 0.8 mi South 10.4 mph - 0.00 in Snow Light Snow
10:04 AM 6.8 °F -5.9 °F 3.2 °F 85% 29.59 in 0.5 mi South 8.1 mph 17.3 mph 0.00 in Fog , Snow Snow
10:29 AM 6.8 °F -6.9 °F 3.2 °F 85% 29.59 in 1.5 mi SSW 9.2 mph - 0.00 in Snow Light Snow
10:36 AM 8.6 °F -6.3 °F 3.2 °F 79% 29.58 in 1.5 mi South 11.5 mph - 0.00 in Snow Light Snow
10:46 AM 8.6 °F -8.9 °F 1.4 °F 73% 29.57 in 1.0 mi South 16.1 mph - 0.00 in Snow Light Snow
10:53 AM 8.1 °F -7.0 °F 3.0 °F 80% 29.62 in 1.0 mi South 11.5 mph - 0.00 in Snow Light Snow
11:20 AM 8.6 °F -5.5 °F 3.2 °F 79% 29.54 in 1.5 mi South 10.4 mph - 0.00 in Snow Light Snow
11:37 AM 10.4 °F -4.1 °F 3.2 °F 73% 29.52 in 2.5 mi South 11.5 mph - 0.00 in Snow Light Snow
11:44 AM 10.4 °F -3.3 °F 3.2 °F 73% 29.52 in 4.0 mi South 10.4 mph - 0.00 in Snow Light Snow
11:53 AM 10.0 °F -4.5 °F 3.9 °F 76% 29.58 in 4.0 mi South 11.5 mph - 0.00 in Snow Light Snow
12:01 PM 10.4 °F -2.4 °F 3.2 °F 73% 29.51 in 5.0 mi South 9.2 mph - 0.00 in Snow Light Snow
12:12 PM 10.4 °F -4.1 °F 5.0 °F 79% 29.50 in 2.5 mi South 11.5 mph 19.6 mph 0.00 in Snow Light Snow
12:53 PM 10.9 °F -4.1 °F 5.0 °F 77% 29.52 in 1.5 mi South 12.7 mph - 0.00 in Snow Light Snow
1:16 PM 10.4 °F -3.3 °F 6.8 °F 85% 29.45 in 2.0 mi South 10.4 mph - 0.00 in Snow Light Snow
1:36 PM 12.2 °F 0.7 °F 6.8 °F 79% 29.43 in 4.0 mi South 8.1 mph - 0.00 in Snow Light Snow
1:53 PM 12.9 °F 1.6 °F 7.0 °F 77% 29.48 in 5.0 mi South 8.1 mph - 0.00 in Snow Light Snow
2:36 PM 14.0 °F 1.2 °F 8.6 °F 79% 29.40 in 4.0 mi South 10.4 mph - 0.00 in Snow Light Snow
2:53 PM 15.1 °F 2.5 °F 9.0 °F 77% 29.46 in 6.0 mi SSW 10.4 mph - 0.00 in   Haze
3:53 PM 18.0 °F 7.7 °F 10.9 °F 74% 29.43 in 10.0 mi SW 8.1 mph - N/A   Overcast
4:53 PM 19.9 °F 11.1 °F 12.0 °F 71% 29.44 in 10.0 mi SW 6.9 mph - N/A   Overcast
5:53 PM 19.9 °F 11.1 °F 12.0 °F 71% 29.44 in 10.0 mi SSW 6.9 mph - N/A   Overcast
6:53 PM 21.0 °F 13.4 °F 14.0 °F 74% 29.47 in 10.0 mi SW 5.8 mph - N/A   Overcast
7:53 PM 25.0 °F 12.2 °F 18.0 °F 75% 29.46 in 10.0 mi West 16.1 mph 19.6 mph N/A   Overcast
8:32 PM 26.6 °F 13.4 °F 19.4 °F 74% 29.43 in 10.0 mi West 18.4 mph - N/A   Mostly Cloudy
8:53 PM 27.0 °F 17.3 °F 19.0 °F 72% 29.44 in 10.0 mi SW 10.4 mph - N/A   Mostly Cloudy
9:02 PM 26.6 °F 16.2 °F 19.4 °F 74% 29.42 in 10.0 mi WSW 11.5 mph - N/A   Mostly Cloudy
9:29 PM 26.6 °F 20.0 °F 19.4 °F 74% 29.41 in 10.0 mi WSW 5.8 mph - N/A   Overcast
9:53 PM 27.0 °F 18.7 °F 19.9 °F 75% 29.42 in 10.0 mi SW 8.1 mph - N/A   Overcast
10:17 PM 26.6 °F 16.8 °F 21.2 °F 80% 29.38 in 2.5 mi SW 10.4 mph - 0.00 in Snow Light Snow
10:26 PM 26.6 °F 16.2 °F 21.2 °F 80% 29.38 in 1.8 mi SW 11.5 mph - 0.00 in Snow Light Snow
10:34 PM 26.6 °F 15.7 °F 23.0 °F 86% 29.38 in 2.5 mi SW 12.7 mph - 0.00 in Snow Light Snow
10:53 PM 27.0 °F 18.0 °F 23.0 °F 85% 29.42 in 1.2 mi SW 9.2 mph - 0.00 in Snow Light Snow
11:20 PM 26.6 °F 14.7 °F 24.8 °F 93% 29.38 in 1.2 mi WSW 15.0 mph - 0.00 in Snow Light Snow
11:53 PM 27.0 °F 12.8 °F 23.0 °F 85% 29.43 in 1.0 mi NW 21.9 mph 29.9 mph 0.01 in Snow Light Snow
11:57 PM 24.8 °F 12.4 °F 21.2 °F 86% 29.39 in 0.5 mi NNW 15.0 mph 29.9 mph 0.00 in Fog , Snow Snow